World > North America > United States > Iowa > Miles  

Miles, IA Hourly Weather Updates

Feedback E-mail the Weather

Quick Clicks

Miles, IA Weather Maps

°F °C°F °C
Miles Weather Map
UTC Time: 7/25/2024, 19:01
Your Time:

Miles, IA Regional Weather

Expires:202407251900;;282529
ASUS43 KDMX 251806
RWRIA 

WEATHER ROUNDUP FOR IOWA
NATIONAL WEATHER SERVICE DES MOINES IA
100 PM CDT THU JUL 25 2024

NOTE: "FAIR" INDICATES FEW OR NO CLOUDS BELOW 12,000 FEET WITH NO
SIGNIFICANT WEATHER AND/OR OBSTRUCTIONS TO VISIBILITY.

* - THESE STATIONS ARE NOT NWS STATIONS...THUS NOT UNDER NWS
QUALITY CONTROL.  THEY ALSO DO NOT REPORT WEATHER SUCH 
AS PRECIPITATION OR FOG.  


IAZ007>011-017>019-026>030-037>042-050>054-066-251900-
   NORTHEAST IOWA
  
CITY           SKY/WX    TMP DP  RH WIND       PRES   REMARKS
CEDAR RAPIDS   MOSUNNY   78  67  68 E9        30.22S HX  80  TC  26   
6HR MIN TEMP:  64; 6HR MAX TEMP:  78;                                

CHARLES CITY * PTSUNNY   75  64  69 SE13      30.23F TC  24           
CLINTON *      MOSUNNY   77  64  64 E8        30.25S TC  25           
DECORAH *      SUNNY     73  61  64 VRB6      30.24F TC  23           
DUBUQUE        MOSUNNY   75  61  61 E6        30.26F TC  24           
6HR MIN TEMP:  61; 6HR MAX TEMP:  76;                                

MONTICELLO *   MOSUNNY   77  64  65 VRB5G13   30.22F TC  25           
OELWEIN *      MOSUNNY   75  63  64 SE9       30.25F TC  24           
WATERLOO       CLOUDY    77  64  64 E9        30.22F TC  25           
6HR MIN TEMP:  63; 6HR MAX TEMP:  78;                                

$$
 

SKY/WX - Weather  TMP - Temperature  DP - Dew Point  RH - Humidity
WIND - Wind Direction/Speed PRES - Barometric Pressure VSB - Visibility
WCI - Wind Chill Index E13G22 Wind - East Wind 13 mph/Gusts of 22 mph

Trending Headlines

Trending Entertainment Headlines

Miles Radar Loop

Use the map search tool if you want to place a location marker on the radar map...

Miles Quick Facts

National Two Day Weather Forecast


E-mail the Miles Weather Forecast

Voice your opinion or tell us about page issues...